Temp
61 61 61 61 60 60 61 61 61 61 61 62 62 62 62 62 62 64 61 70 68 72 72 72 73 73 70 65 67 65 51 44 50 56 60 66 65 73 76 72 74 76 76 78 80
61 60 61 61 61 60 60 60 61 61 61 62 61 61 61 61 63 65 74 74 74 73 71 69 68 69 64 63 65 59 48 51 61 61 57 63 65 67 71 69 71 74 79 81 81
60 60 60 60 61 60 60 60 60 61 61 61 61 61 61 60 62 67 77 74 74 73 71 71 69 65 57 62 62 58 55 61 64 67 66 62 63 69 65 63 69 70 75 78 76
60 60 60 60 60 60 60 60 60 61 61 61 61 61 61 62 52 73 78 75 74 71 71 69 66 58 54 55 61 53 62 63 65 67 64 65 66 67 66 69 75 75 76 76 74
59 59 59 59 59 59 59 60 60 60 60 60 61 62 64 62 63 80 78 77 75 73 71 66 64 57 52 56 62 55 62 66 67 65 64 68 66 65 65 73 75 76 77 75 72
58 58 58 59 59 59 59 59 58 59 59 60 61 62 64 58 78 82 78 75 77 71 74 69 61 63 57 56 55 61 63 64 64 65 64 63 66 65 70 74 74 75 73 73 74
58 58 58 58 58 59 59 58 58 59 60 61 62 66 64 65 79 79 77 74 77 76 72 72 72 66 61 59 63 63 58 62 63 65 61 65 61 64 73 73 71 71 72 73 73
58 58 58 58 58 58 58 58 58 60 61 63 64 63 61 78 76 76 76 78 81 80 78 78 75 65 60 61 62 57 53 47 60 65 66 64 52 65 71 68 70 73 74 74 73
58 57 57 58 58 58 58 58 60 62 63 63 61 61 61 78 78 82 78 77 79 79 78 85 71 63 62 52 48 50 45 49 55 63 63 60 54 65 69 67 67 67 69 72 72
57 57 57 57 57 57 56 57 61 62 67 70 72 60 67 71 79 81 80 81 76 74 71 66 61 55 51 47 40 45 46 48 49 59 60 55 55 61 65 65 65 65 67 68 69
57 57 57 57 57 56 54 62 63 62 62 64 68 68 75 81 83 79 81 78 74 67 56 60 53 48 53 55 58 55 51 50 54 61 55 53 53 61 63 62 62 63 64 64 67
57 57 57 57 57 56 51 61 67 70 60 71 73 74 79 80 72 77 81 68 64 56 60 55 49 60 63 63 58 55 50 49 54 60 57 54 56 62 64 62 63 65 68 66 65
56 56 56 57 56 54 61 69 75 71 58 67 74 73 74 77 71 72 76 70 61 56 56 51 58 67 63 58 57 51 49 49 50 56 55 53 51 53 62 63 65 65 65 66 66
56 56 56 55 60 59 65 75 73 71 47 60 68 74 76 73 67 80 79 71 61 56 58 55 63 62 58 57 57 47 58 57 55 49 40 53 38 51 55 58 61 65 63 64 65
56 56 56 55 53 60 72 69 68 67 37 67 71 83 78 70 70 72 78 69 60 60 57 54 58 58 56 59 61 53 59 55 54 47 41 47 38 45 51 54 58 61 65 64 64
56 56 56 54 51 62 69 67 67 49 38 62 71 68 66 68 70 72 70 70 68 60 59 58 65 63 60 64 62 62 53 51 47 42 33 44 41 40 46 52 55 58 61 64 59
56 55 53 62 62 66 67 62 46 38 64 61 62 66 62 62 64 66 63 57 53 46 47 55 58 64 66 55 59 54 42 32 32 31 32 46 42 43 51 56 57 56 58 57 57
54 53 54 63 61 66 62 53 37 55 59 67 64 63 57 63 62 63 58 53 60 54 47 44 43 60 64 54 49 49 44 33 27 27 33 46 37 45 57 59 61 62 59 59 57
53 51 56 64 66 64 54 40 44 54 63 61 61 55 55 60 58 57 54 54 58 56 46 43 47 60 62 61 57 49 43 48 38 37 31 38 45 53 55 57 59 58 61 59 60
47 48 56 70 69 60 49 45 51 63 65 62 51 56 48 52 52 51 51 60 59 60 55 49 40 56 60 59 57 51 53 39 36 29 27 35 39 40 49 52 56 57 58 60 60
46 49 64 68 66 53 43 46 58 67 66 59 54 51 52 50 52 49 52 58 62 60 56 49 43 45 53 48 45 46 41 43 43 42 32 28 35 49 49 52 53 56 57 58 59
42 45 65 67 52 46 45 55 60 63 65 62 58 55 51 52 49 50 50 55 63 60 52 51 43 36 44 54 58 52 48 43 29 34 35 35 39 58 55 54 55 55 65 65 58
38 43 61 61 44 44 50 57 60 60 59 58 56 58 56 50 43 49 52 62 61 56 50 49 39 30 38 43 50 46 49 47 41 36 31 33 36 56 57 55 57 60 64 60 57
39 41 50 51 50 46 44 48 51 62 59 62 58 57 52 49 50 46 50 59 60 58 60 54 40 41 35 40 44 42 47 49 42 27 37 39 43 50 51 52 58 58 54 55 56
41 42 45 40 43 44 44 48 49 49 59 58 53 55 51 42 45 46 50 51 55 58 52 47 36 41 44 47 48 46 46 47 44 45 38 43 44 50 52 55 57 54 55 56 57
39 39 42 40 44 43 43 43 47 50 50 49 49 53 52 45 46 43 46 46 45 49 45 45 36 40 39 46 46 43 47 47 47 47 46 47 46 56 57 58 55 57 55 54 55
41 42 38 39 40 39 41 44 45 47 49 53 50 47 47 50 52 50 49 47 47 44 41 41 39 33 32 42 40 32 42 45 46 49 47 40 48 47 46 50 48 49 52 53 55
MSLP
1018.50 1018.18 1017.84 1017.52 1017.29 1017.08 1016.78 1016.52 1016.35 1016.12 1015.87 1015.61 1015.24 1014.88 1014.52 1014.02 1013.02 1012.74 1012.44 1011.75 1011.53 1011.55 1011.45 1011.13 1010.62 1010.47 1010.54 1010.78 1010.42 1010.84 1012.26 1012.77 1011.91 1010.86 1010.14 1009.12 1008.65 1007.83 1007.20 1007.21 1006.72 1006.59 1006.62 1006.45 1006.20
1018.66 1018.30 1017.90 1017.52 1017.20 1016.98 1016.72 1016.47 1016.27 1015.98 1015.68 1015.42 1015.10 1014.69 1014.35 1014.04 1013.52 1012.53 1011.34 1011.27 1011.34 1011.41 1011.30 1011.29 1011.02 1010.90 1010.82 1010.53 1010.48 1010.95 1011.99 1011.78 1010.85 1010.04 1009.84 1009.35 1008.78 1008.36 1008.11 1007.64 1007.02 1006.55 1006.35 1006.56 1006.44
1018.79 1018.39 1018.03 1017.58 1017.22 1016.89 1016.59 1016.34 1016.17 1015.94 1015.64 1015.32 1014.98 1014.59 1014.30 1014.06 1013.58 1012.05 1010.92 1011.04 1011.03 1011.21 1011.47 1011.59 1011.26 1011.29 1011.25 1010.88 1010.76 1010.69 1011.07 1010.48 1010.15 1009.56 1009.25 1009.18 1008.75 1008.38 1008.37 1008.34 1007.84 1007.36 1006.80 1006.45 1006.48
1018.97 1018.48 1018.06 1017.64 1017.21 1016.83 1016.47 1016.15 1015.99 1015.88 1015.65 1015.31 1014.93 1014.49 1014.02 1013.92 1013.29 1011.42 1010.60 1010.66 1010.89 1011.17 1011.23 1011.38 1011.22 1011.40 1011.62 1011.50 1011.16 1010.91 1010.53 1010.31 1009.87 1009.40 1009.42 1009.17 1008.85 1008.49 1008.17 1007.97 1007.40 1006.97 1006.68 1006.46 1006.40
1019.15 1018.60 1018.13 1017.68 1017.24 1016.78 1016.34 1016.00 1015.74 1015.64 1015.53 1015.30 1014.88 1014.45 1013.88 1013.52 1012.38 1010.56 1010.41 1010.40 1010.68 1011.02 1011.15 1011.13 1011.22 1011.51 1011.81 1011.66 1011.20 1010.83 1010.61 1010.05 1009.64 1009.52 1009.38 1008.86 1008.52 1008.41 1007.99 1007.32 1006.92 1006.70 1006.40 1006.18 1006.22
1019.26 1018.64 1018.11 1017.61 1017.15 1016.70 1016.24 1015.89 1015.60 1015.43 1015.27 1015.06 1014.76 1014.48 1014.09 1012.78 1010.34 1010.12 1010.28 1010.78 1010.70 1010.84 1010.52 1010.61 1010.96 1010.97 1011.38 1011.54 1011.59 1010.97 1010.59 1010.30 1009.90 1009.58 1008.89 1008.90 1008.46 1008.54 1007.60 1006.88 1006.65 1006.45 1006.28 1006.00 1005.94
1019.28 1018.69 1018.05 1017.47 1016.91 1016.41 1016.03 1015.60 1015.28 1015.16 1015.07 1014.89 1014.76 1014.54 1013.90 1011.59 1009.98 1009.95 1010.28 1010.26 1010.21 1010.40 1010.16 1010.15 1010.28 1010.92 1011.30 1011.67 1011.19 1011.14 1011.21 1010.30 1009.81 1009.44 1008.94 1008.62 1008.82 1008.36 1007.24 1006.75 1006.76 1006.17 1005.88 1005.83 1005.77
1019.32 1018.66 1018.10 1017.50 1016.85 1016.17 1015.60 1015.16 1014.86 1014.70 1014.72 1014.65 1014.66 1014.47 1012.88 1010.29 1009.90 1010.16 1010.13 1009.98 1009.66 1009.64 1009.73 1009.73 1009.92 1010.68 1011.32 1011.48 1011.62 1011.66 1011.56 1011.48 1010.11 1009.54 1008.66 1008.79 1008.82 1007.91 1007.27 1007.18 1006.98 1006.18 1005.82 1005.61 1005.50
1019.38 1018.66 1018.06 1017.47 1016.87 1016.17 1015.33 1014.52 1014.22 1014.16 1014.29 1014.51 1014.59 1014.06 1012.24 1010.04 1009.82 1009.29 1009.40 1009.47 1009.22 1009.16 1009.22 1009.36 1009.99 1010.76 1011.32 1011.93 1012.38 1012.32 1012.20 1011.73 1010.84 1009.58 1009.30 1009.16 1008.97 1008.28 1007.65 1007.66 1007.20 1006.64 1006.12 1005.77 1005.50
1019.40 1018.62 1017.87 1017.28 1016.72 1016.15 1015.24 1014.27 1013.61 1013.72 1013.74 1014.03 1013.81 1013.80 1011.51 1009.98 1009.29 1008.98 1009.02 1009.07 1009.30 1009.38 1009.77 1009.79 1010.56 1011.26 1012.03 1012.47 1012.90 1012.46 1012.06 1011.47 1010.85 1009.79 1009.43 1009.28 1008.93 1008.34 1007.60 1007.23 1006.96 1006.68 1006.34 1006.03 1005.80
1019.30 1018.52 1017.66 1016.95 1016.42 1016.02 1015.08 1013.96 1014.06 1013.88 1013.42 1012.96 1012.36 1011.66 1010.34 1009.40 1008.66 1008.82 1008.87 1009.06 1009.38 1009.97 1010.53 1010.48 1011.40 1011.66 1011.60 1011.63 1011.20 1011.30 1011.39 1011.28 1010.64 1010.00 1009.93 1009.63 1009.00 1008.06 1007.38 1007.03 1006.64 1006.31 1005.99 1005.58 1005.34
1019.21 1018.35 1017.38 1016.52 1015.96 1015.81 1015.89 1014.77 1013.32 1012.97 1012.08 1011.20 1010.69 1010.30 1009.65 1009.44 1008.96 1008.52 1008.63 1009.38 1009.74 1010.47 1010.77 1011.12 1011.08 1010.52 1010.43 1010.46 1010.54 1010.76 1011.05 1011.13 1010.68 1010.28 1010.06 1009.51 1008.60 1007.74 1007.00 1006.62 1006.30 1005.92 1005.18 1004.62 1004.65
1019.15 1018.19 1017.14 1016.02 1015.28 1015.31 1014.76 1013.30 1011.69 1012.08 1012.20 1009.85 1009.22 1008.92 1008.64 1008.67 1008.66 1008.40 1008.85 1009.06 1009.80 1010.52 1010.94 1011.36 1010.42 1010.16 1010.08 1010.10 1010.19 1010.49 1010.84 1011.01 1010.90 1010.32 1010.20 1009.73 1008.70 1007.65 1006.63 1006.11 1005.66 1005.22 1004.35 1003.96 1004.19
1018.93 1018.07 1017.11 1015.84 1015.05 1014.93 1013.69 1012.09 1011.56 1011.74 1012.07 1009.90 1008.34 1007.56 1007.76 1008.08 1008.35 1007.63 1008.11 1008.99 1009.79 1010.45 1010.74 1010.69 1009.90 1009.90 1009.80 1009.82 1009.89 1010.18 1010.24 1010.62 1010.91 1011.26 1011.32 1010.90 1009.73 1008.18 1006.97 1006.42 1005.88 1004.90 1004.70 1004.00 1004.20
1018.64 1017.86 1017.02 1016.56 1015.98 1014.78 1012.64 1011.95 1011.66 1011.90 1011.80 1008.76 1007.83 1006.79 1007.28 1008.01 1007.79 1007.66 1007.70 1008.57 1009.44 1010.01 1010.71 1010.59 1009.99 1009.63 1009.55 1009.22 1009.42 1009.79 1009.96 1010.66 1011.25 1011.77 1011.99 1011.38 1011.22 1008.66 1007.85 1006.89 1006.15 1005.66 1005.38 1004.77 1004.74
1017.98 1017.14 1016.86 1016.33 1015.84 1013.42 1012.36 1012.08 1012.08 1012.82 1010.77 1008.64 1007.73 1007.42 1007.88 1008.02 1007.94 1007.90 1008.05 1008.43 1008.88 1009.70 1010.05 1009.96 1009.23 1009.21 1008.79 1008.51 1008.94 1009.45 1010.38 1011.06 1011.54 1012.16 1012.53 1011.89 1011.43 1009.45 1008.40 1007.67 1006.94 1006.56 1006.14 1005.93 1006.04
1017.55 1016.18 1016.23 1015.23 1013.90 1012.51 1012.42 1013.03 1013.76 1012.72 1009.99 1009.21 1008.72 1008.49 1008.66 1008.41 1008.21 1008.08 1008.46 1008.90 1009.45 1009.92 1010.18 1009.74 1009.22 1008.59 1008.31 1008.79 1009.20 1010.00 1011.48 1012.88 1013.39 1013.46 1013.02 1011.88 1011.35 1009.48 1008.46 1007.58 1007.14 1007.03 1006.78 1006.91 1006.99
1016.91 1015.60 1014.75 1013.66 1012.68 1012.88 1013.30 1014.14 1014.13 1011.95 1010.54 1009.56 1009.31 1009.02 1009.16 1009.06 1008.63 1008.49 1008.84 1009.24 1009.28 1009.90 1010.31 1010.09 1009.32 1008.79 1008.96 1009.52 1010.06 1010.69 1011.91 1013.60 1014.12 1014.27 1013.31 1012.31 1010.98 1008.84 1007.84 1007.14 1006.70 1006.50 1006.56 1006.74 1007.04
1016.99 1015.23 1014.53 1012.17 1012.17 1013.20 1014.35 1014.80 1013.48 1011.93 1010.79 1010.20 1009.86 1009.70 1009.71 1009.70 1009.90 1010.02 1009.98 1009.81 1009.56 1009.62 1010.29 1010.13 1009.58 1008.80 1008.97 1009.37 1010.25 1010.89 1011.80 1012.30 1013.59 1013.79 1013.46 1011.97 1010.29 1008.56 1007.66 1007.28 1006.79 1006.58 1006.60 1006.59 1006.67
1018.42 1016.76 1014.14 1011.59 1011.96 1013.38 1014.61 1014.56 1013.15 1011.66 1010.74 1010.34 1010.36 1010.33 1010.53 1010.57 1010.69 1010.84 1010.58 1009.78 1009.67 1009.87 1009.88 1010.47 1010.45 1009.75 1009.51 1009.65 1010.03 1010.76 1011.70 1012.64 1013.78 1013.97 1013.20 1011.45 1010.15 1008.62 1007.84 1007.25 1006.79 1006.59 1006.43 1006.28 1005.97
1018.86 1017.18 1012.93 1011.86 1012.35 1014.22 1014.99 1014.14 1012.56 1011.31 1010.53 1010.32 1010.34 1010.78 1011.08 1011.27 1011.12 1011.08 1010.55 1009.94 1009.76 1009.96 1010.24 1010.80 1011.21 1011.10 1010.67 1010.68 1010.68 1011.04 1011.70 1012.50 1013.28 1013.58 1012.86 1011.70 1009.55 1007.78 1007.52 1007.19 1006.61 1006.17 1005.82 1005.77 1005.46
1021.05 1018.60 1013.27 1013.24 1014.18 1014.81 1014.90 1013.62 1012.32 1011.35 1010.77 1010.22 1010.16 1010.58 1011.11 1011.30 1011.33 1011.36 1010.83 1010.44 1009.86 1010.25 1010.50 1010.82 1011.49 1011.80 1011.43 1010.83 1010.38 1010.97 1011.50 1012.48 1013.72 1013.18 1012.62 1011.34 1008.21 1007.08 1006.91 1006.78 1006.25 1005.62 1004.92 1004.52 1004.53
1022.64 1019.66 1014.56 1014.18 1015.34 1015.75 1015.34 1014.31 1013.01 1011.99 1011.57 1011.19 1011.03 1010.90 1011.04 1011.41 1011.61 1011.14 1010.64 1010.17 1010.24 1010.56 1011.00 1011.46 1012.19 1012.47 1012.06 1011.52 1010.74 1011.10 1011.28 1012.22 1012.84 1012.72 1012.11 1011.33 1008.40 1006.84 1006.22 1006.17 1005.92 1005.40 1004.60 1004.17 1004.02
1023.41 1021.06 1017.47 1016.36 1016.68 1017.08 1016.94 1015.42 1014.04 1012.76 1012.07 1011.50 1011.34 1011.04 1011.02 1011.03 1011.08 1011.20 1010.92 1010.38 1010.48 1010.73 1011.14 1011.47 1012.23 1012.83 1012.39 1012.23 1011.98 1011.41 1011.24 1011.59 1012.39 1012.38 1010.99 1009.36 1007.92 1007.72 1006.98 1006.34 1005.79 1004.74 1004.05 1004.29 1004.50
1023.43 1021.94 1020.81 1019.51 1018.46 1018.61 1018.05 1016.68 1015.30 1013.98 1012.80 1012.53 1011.60 1011.20 1011.20 1011.39 1011.44 1011.44 1011.22 1011.20 1011.12 1011.18 1011.57 1012.22 1012.75 1012.88 1012.39 1012.15 1011.79 1011.04 1010.59 1010.87 1010.93 1010.50 1010.35 1007.49 1007.50 1006.96 1006.53 1005.81 1005.15 1004.44 1004.69 1004.23 1004.23
1023.96 1023.50 1022.50 1021.54 1020.31 1019.21 1018.33 1017.27 1016.41 1015.24 1014.88 1013.74 1013.12 1012.40 1011.82 1011.70 1011.55 1011.74 1011.66 1011.66 1011.72 1011.68 1012.16 1012.73 1012.92 1013.21 1011.92 1012.42 1011.90 1010.18 1009.85 1009.60 1009.46 1008.80 1008.34 1007.74 1006.18 1006.33 1006.03 1005.73 1005.52 1004.99 1005.07 1004.83 1004.36
1024.78 1024.36 1023.76 1022.30 1021.12 1020.43 1019.08 1018.20 1017.50 1016.86 1015.56 1014.92 1014.42 1013.43 1012.41 1011.89 1011.36 1011.21 1011.32 1011.53 1011.72 1012.08 1012.59 1013.09 1013.57 1014.04 1011.80 1012.51 1011.80 1009.57 1008.46 1008.06 1007.67 1007.46 1007.38 1007.16 1006.42 1006.83 1006.86 1006.81 1006.60 1006.05 1005.52 1005.17 1004.82
Wind_Speed
16 15 13 12 11 11 11 11 11 11 11 11 11 12 12 14 14 2 3 7 4 7 6 8 4 5 3 4 3 4 5 2 4 5 7 7 7 9 5 5 4 3 4 2 1
17 16 15 14 13 11 11 11 11 11 11 11 11 11 11 13 4 6 7 5 7 4 3 7 8 9 4 2 2 5 5 7 7 4 4 4 5 5 7 11 8 9 8 5 6
18 17 17 16 15 13 12 12 11 10 11 12 12 12 11 8 3 5 4 6 7 2 1 4 6 2 2 5 4 4 6 6 5 5 5 2 2 4 3 5 7 8 10 8 3
20 18 17 17 16 14 13 13 12 11 10 12 12 14 16 1 2 6 8 8 5 1 4 3 3 4 4 5 4 2 2 2 5 4 4 7 3 6 3 9 8 9 7 5 5
20 20 19 17 16 14 13 13 13 11 10 10 11 11 3 3 7 9 9 8 3 3 3 3 7 3 4 4 7 2 4 9 9 8 7 6 7 5 7 11 9 10 10 10 3
20 20 20 19 18 15 13 11 11 9 7 8 9 10 3 3 6 8 10 1 7 3 3 4 1 2 2 3 1 4 8 10 7 12 8 5 10 4 12 11 9 8 11 9 7
21 20 20 20 19 17 15 12 10 8 6 5 6 3 1 11 3 9 8 7 5 6 2 3 5 4 2 8 4 3 8 10 5 7 4 3 6 10 16 9 9 9 6 4 3
22 21 21 20 19 18 18 16 12 8 6 3 1 2 7 6 4 6 7 8 4 6 4 7 5 3 4 3 7 5 4 4 9 6 4 6 8 10 11 6 10 8 8 8 7
23 22 22 21 20 19 19 20 12 6 5 4 1 1 10 10 2 7 4 2 3 3 4 4 5 5 3 3 6 6 2 4 8 6 5 1 7 9 11 8 10 8 9 8 9
24 24 22 21 20 17 21 14 6 7 3 5 3 3 6 4 4 2 3 5 4 4 6 1 3 1 4 5 3 5 4 4 7 7 9 7 7 7 8 7 9 8 8 9 9
25 24 24 22 20 15 11 5 7 5 1 7 7 6 13 5 3 3 4 3 2 4 3 4 4 6 9 8 6 3 3 6 7 10 4 5 9 12 9 7 10 9 9 9 11
26 26 25 24 20 14 1 1 6 6 10 12 15 15 18 8 2 6 7 3 3 5 7 7 4 8 9 5 2 4 5 7 5 4 6 9 18 16 14 9 6 10 17 14 6
26 26 26 27 26 2 3 7 5 4 3 10 7 6 9 10 8 10 9 4 2 3 6 5 9 6 2 3 4 3 2 4 8 5 3 7 10 5 10 6 5 7 7 6 9
27 27 25 30 3 4 4 8 4 4 5 7 4 5 5 4 4 7 7 6 1 3 5 6 4 7 8 7 4 4 4 5 8 7 5 4 9 8 5 7 5 7 8 4 7
27 27 25 10 4 2 5 7 5 7 4 4 4 5 6 6 3 3 4 3 7 8 3 10 7 12 9 10 5 7 4 4 5 7 3 5 2 8 5 5 7 10 9 8 6
33 27 20 3 2 9 8 7 6 6 6 3 5 5 3 3 5 3 5 3 4 5 4 11 5 5 7 8 4 3 3 6 4 3 1 6 3 7 4 5 4 6 9 10 9
35 33 13 3 6 2 6 6 6 3 6 2 3 3 2 6 5 2 5 3 3 3 6 6 5 6 3 3 8 8 8 5 6 5 6 5 5 9 2 5 4 4 8 7 5
37 31 6 6 5 3 4 7 2 5 4 3 3 4 3 5 5 3 3 2 6 5 3 5 7 5 2 2 3 4 7 6 4 4 6 5 6 7 8 6 7 5 6 6 6
31 5 4 6 7 4 7 3 8 5 3 4 4 2 3 2 4 8 5 5 4 1 4 2 6 4 1 3 4 4 5 7 4 4 2 6 6 8 5 6 5 2 4 5 5
7 5 5 5 7 6 6 6 6 4 13 2 3 2 2 4 4 5 3 4 5 6 3 4 5 3 4 3 2 5 3 5 3 4 6 5 5 7 5 3 6 6 8 9 9
4 6 6 4 6 6 3 8 6 8 8 6 6 3 4 3 4 2 6 6 2 4 4 1 3 5 3 2 5 6 3 3 2 4 5 4 8 8 7 9 9 9 9 11 11
5 5 4 5 3 1 3 5 3 6 4 8 5 8 7 4 3 4 6 4 9 4 6 3 4 4 8 7 12 7 12 5 4 8 5 4 12 7 7 9 9 10 19 16 11
4 5 6 5 2 3 7 7 5 6 6 6 4 6 6 7 3 6 5 5 7 3 3 2 2 5 9 8 4 4 3 3 4 2 6 5 7 6 11 9 10 18 22 11 5
3 5 7 5 2 5 6 6 7 7 10 7 9 9 7 6 6 5 3 3 7 3 4 4 5 8 13 11 4 11 14 11 7 3 12 15 22 14 9 11 15 17 5 5 4
2 4 2 6 3 7 4 5 13 8 5 8 7 6 5 3 2 5 3 3 2 3 2 3 5 6 9 10 11 17 20 18 20 20 15 24 23 17 11 17 16 5 5 4 6
3 5 6 4 8 8 4 4 11 9 8 13 9 11 5 4 7 7 4 5 7 3 1 1 8 4 19 12 16 24 18 18 18 23 24 24 28 13 13 8 7 3 6 9 8
4 5 2 5 4 4 5 7 16 10 9 11 16 11 6 8 5 5 7 5 7 6 6 6 3 3 26 7 10 16 14 21 18 19 16 17 19 4 5 7 7 10 7 5 6
Wind_Direction
5 359 354 351 348 343 341 341 347 347 345 346 344 336 333 331 313 141 309 220 253 345 326 288 294 324 150 235 214 101 60 302 265 4 280 311 25 334 299 50 336 21 145 265 358
3 359 355 349 343 338 335 335 343 343 341 345 339 330 331 337 1 314 245 243 265 331 4 15 334 7 338 258 320 101 113 231 209 272 281 307 22 338 13 344 337 342 346 44 29
6 359 350 349 343 335 329 329 335 341 343 338 333 326 325 326 8 283 263 251 268 15 332 323 275 195 291 15 316 195 199 200 256 250 343 319 302 309 30 322 279 277 302 317 7
3 358 349 344 341 334 327 325 328 337 338 331 326 323 320 206 121 255 252 240 244 15 330 353 342 36 39 358 321 294 199 224 276 4 347 307 275 317 247 247 240 266 256 277 336
359 357 351 344 338 331 323 319 321 331 335 328 320 328 6 12 246 237 240 258 288 164 260 319 42 29 5 316 336 80 317 335 320 302 277 287 285 260 268 264 263 272 284 280 265
355 352 349 345 338 331 322 314 313 319 330 325 318 324 25 319 234 200 213 245 255 273 353 66 125 284 291 309 30 306 324 301 300 298 272 252 279 56 277 268 276 270 270 269 247
353 350 347 343 338 332 325 315 311 309 314 304 302 321 281 238 222 203 180 213 200 220 233 242 157 76 9 326 291 283 314 320 303 290 291 140 314 252 258 285 300 275 202 202 254
349 348 346 342 338 331 324 315 305 295 292 285 297 278 253 264 264 177 194 283 228 227 218 238 192 166 165 235 348 296 70 1 292 340 273 119 265 280 273 301 253 222 218 210 211
346 344 343 340 338 330 319 308 295 289 233 191 351 118 275 310 214 257 214 230 264 280 276 271 117 195 24 64 0 10 246 290 311 286 278 209 266 279 303 304 274 264 259 231 231
344 341 339 337 335 330 315 290 298 323 111 173 258 351 284 223 210 206 255 251 253 297 335 276 61 345 20 79 236 253 274 276 286 276 343 324 281 288 291 307 283 277 261 252 253
343 339 336 334 331 336 343 5 14 1 82 203 224 243 291 256 180 229 234 272 352 51 280 305 98 229 228 204 210 239 253 267 272 302 341 267 284 297 277 289 282 277 258 233 237
340 337 334 331 324 324 251 119 222 235 295 231 239 242 251 266 300 278 153 174 61 306 333 355 278 263 220 231 291 297 297 299 290 286 331 312 293 290 283 264 263 278 275 249 223
338 336 333 327 321 113 191 230 270 349 312 294 215 218 229 161 207 252 168 145 142 285 306 207 248 326 313 293 313 299 242 275 277 294 310 297 292 274 293 282 255 275 309 240 222
336 336 333 327 2 334 264 291 238 132 39 278 194 235 173 148 265 221 173 139 130 257 274 264 276 334 327 304 134 222 227 284 304 346 302 52 289 331 285 296 257 315 332 227 191
333 333 331 324 292 310 264 325 306 57 349 206 180 179 183 165 208 213 161 85 180 213 155 244 287 295 295 260 182 230 239 269 276 251 36 315 39 273 314 329 327 329 334 27 353
331 330 333 116 217 245 317 331 51 46 264 228 148 196 165 245 267 195 185 83 197 196 218 243 237 214 237 287 188 252 5 336 330 110 74 194 193 280 305 299 323 356 354 39 37
329 323 317 253 229 298 335 42 40 155 298 58 95 50 255 239 272 270 195 189 201 305 285 296 251 308 147 41 353 36 48 337 346 3 221 297 9 243 270 247 180 103 70 89 56
327 316 227 222 251 8 43 53 191 251 288 47 12 317 233 353 290 218 200 267 288 183 256 211 323 165 24 87 238 265 156 162 255 231 256 298 239 255 216 244 265 139 142 155 162
323 323 289 255 208 100 71 92 212 234 339 6 339 278 292 25 32 30 341 240 247 102 195 245 245 292 83 98 93 292 291 209 210 246 350 225 283 316 227 256 192 274 196 214 225
324 331 273 272 129 73 84 224 239 277 293 187 203 283 264 320 21 29 272 291 341 57 55 321 306 274 345 39 304 157 242 310 357 299 249 272 236 228 245 215 185 201 226 245 226
10 357 273 63 68 51 179 230 262 275 274 197 204 225 233 250 208 255 242 321 82 354 76 130 153 272 38 217 222 313 287 247 249 223 239 241 254 225 216 221 245 239 243 246 243
356 345 291 25 23 186 205 220 299 319 343 269 174 193 203 222 255 232 229 208 314 315 291 226 183 239 236 251 256 228 262 182 172 278 263 264 262 231 271 277 274 262 297 299 225
337 270 304 81 214 295 326 317 289 350 356 330 269 207 200 204 260 226 228 264 305 28 57 291 294 334 313 330 48 182 174 184 231 229 210 260 266 296 337 331 303 296 285 274 185
347 328 319 26 12 62 349 289 318 329 298 277 283 284 227 215 199 241 260 286 351 337 338 160 194 218 256 240 239 275 275 276 243 196 286 256 282 284 289 295 292 289 145 140 180
157 263 9 319 330 332 246 262 284 321 269 336 301 237 239 256 259 253 230 287 248 272 63 116 254 220 259 282 277 274 274 270 262 260 248 279 273 281 286 290 298 223 263 174 210
11 12 343 287 290 323 7 306 295 318 339 308 319 311 328 227 208 232 243 186 207 286 269 194 269 294 279 291 281 276 274 273 267 266 264 271 280 293 299 344 350 344 283 259 254
331 339 120 267 292 305 263 322 319 350 302 346 335 333 299 301 274 223 203 191 210 192 211 210 209 112 275 276 300 282 243 246 255 258 251 262 274 38 359 351 319 315 324 356 282